This demonstration page uses our WeatherBlox Daily Observations layout. Learn more.

Left ArrowRight Arrow

Hourly Observations for October 2, 2018

Temp ( °F °C ) Dew Point ( °F °C ) Humidity (%) Winds ( mph kmh ) Pressure ( in mb ) Visibility ( mi km ) Precip ( " mm )
12:53 am 00:53 Cloudy 51 10.6 49 9.4 92 92 ESE 6 9 30.13 1020 10 16 0.00 0.00
1:53 am 01:53 Cloudy 51 10.6 49 9.4 92 92 SE 5 7 30.13 1020 10 16 0.00 0.00
2:53 am 02:53 Cloudy 51 10.6 49 9.4 92 92 SE 5 7 30.12 1020 9 14 0.00 0.00
3:53 am 03:53 Cloudy 51 10.6 49 9.4 92 92 SE 7 11 30.10 1019 8 13 0.00 0.00
4:53 am 04:53 Cloudy 51 10.6 50 10 96 96 SE 8 13 30.08 1019 7 11 0.00 0.00
5:06 am 05:06 Cloudy 51 10.6 50 10 96 96 SE 8 13 30.12 1020 7 11 0.00 0.00
5:53 am 05:53 Cloudy with Mist and Fog 51 10.6 50 10 96 96 SE 5 7 30.09 1019 6 10 0.00 0.00
6:53 am 06:53 Cloudy with Mist and Fog 51 10.6 50 10 96 96 SE 7 11 30.08 1019 5 8 0.00 0.03
7:53 am 07:53 Cloudy with Mist and Fog 51 10.6 50 10 96 96 ESE 5 7 30.08 1019 3 5 0.00 0.00
8:02 am 08:02 Cloudy with Mist and Fog 52 11 50 10 94 94 SE 6 9 30.09 1019 2 3 0.00 0.00
8:14 am 08:14 Cloudy with Mist and Fog 52 11 52 11 100 100 ESE 8 13 30.09 1019 1 2 0.00 0.00
8:53 am 08:53 Cloudy with Mist and Fog 51 10.6 51 10.6 100 100 SE 8 13 30.08 1019 1 1 0.00 0.00
9:01 am 09:01 Cloudy with Mist and Fog 51 10.6 51 10.6 100 100 SE 7 11 30.09 1019 1 2 0.00 0.00
9:13 am 09:13 Cloudy with Mist and Fog 52 11.1 51 10.6 97 97 SE 6 9 30.06 1018 2 3 0.00 0.00
9:35 am 09:35 Cloudy with Mist and Fog 52 11.1 51 10.6 97 97 SE 7 11 30.06 1018 2 3 0.00 0.00
9:53 am 09:53 Cloudy with Mist and Fog 52 11.1 51 10.6 97 97 SE 7 11 30.07 1018 1 2 0.00 0.00
10:06 am 10:06 Cloudy with Mist and Fog 53 11.7 52 11.1 96 96 SE 7 11 30.06 1018 1 2 0.00 0.00
10:13 am 10:13 Cloudy with Mist and Fog 54 12 52 11 94 94 SSE 7 11 30.06 1018 1 1 0.00 0.00
10:53 am 10:53 Cloudy with Fog 53 11.7 52 11.1 96 96 ESE 7 11 30.06 1018 1 1 0.00 0.00
11:53 am 11:53 Cloudy with Mist and Fog 55 12.8 54 12.2 96 96 SE 8 13 30.03 1017 1 1 0.00 0.00
12:53 pm 12:53 Cloudy with Mist and Fog 56 13.3 56 13.3 100 100 SSE 7 11 30.01 1016 1 1 0.00 0.00
1:13 pm 13:13 Cloudy with Mist and Fog 57 14 55 13 94 94 S 6 9 30.00 1016 1 2 0.00 0.00
1:21 pm 13:21 Cloudy with Mist and Fog 57 13.9 56 13.3 96 96 SSE 7 11 30.00 1016 1 1 0.00 0.00
1:53 pm 13:53 Cloudy with Mist and Fog 58 14.4 57 13.9 97 97 SSE 8 13 29.98 1015 1 1 0.00 0.00
2:13 pm 14:13 Cloudy with Mist and Fog 57 14 57 14 100 100 S 6 9 29.94 1014 1 2 0.00 0.00
2:24 pm 14:24 Cloudy with Mist and Fog 61 16 57 14 88 88 S 8 13 29.94 1014 3 5 0.00 0.00
2:51 pm 14:51 Cloudy 63 17 59 15 88 88 S 12 19 29.94 1014 8 13 0.00 0.00
2:53 pm 14:53 Cloudy 62 16.7 59 15 90 90 S 9 15 29.94 1014 8 13 0.00 0.00
3:53 pm 15:53 Mostly Cloudy 64 17.8 60 15.6 87 87 S 8 13 29.91 1013 8 13 0.00 0.00
4:04 pm 16:04 Mostly Cloudy 64 18 61 16 88 88 SSW 6 9 29.88 1012 9 14 0.00 0.00
4:16 pm 16:16 Mostly Sunny 66 18.9 61 16.1 84 84 S 7 11 29.85 1011 9 14 0.00 0.00
4:53 pm 16:53 Sunny 67 19.4 61 16.1 81 81 SSW 3 6 29.89 1012 10 16 0.00 0.00
5:53 pm 17:53 Sunny 68 20 63 17.2 84 84 Calm 29.86 1011 10 16 0.00 0.00
6:53 pm 18:53 Sunny 67 19.4 63 17.2 87 87 E 5 7 29.84 1011 8 13 0.00 0.00
7:53 pm 19:53 Clear 66 18.9 64 17.8 93 93 ESE 5 7 29.83 1010 7 11 0.00 0.00
8:53 pm 20:53 Clear with Mist and Fog 63 17.2 62 16.7 97 97 Calm 29.83 1010 5 8 0.00 0.00
9:53 pm 21:53 Clear with Mist and Fog 62 16.7 60 15.6 93 93 SE 3 6 29.82 1010 4 6 0.00 0.00
10:53 pm 22:53 Clear 67 19.4 61 16.1 81 81 S 7 11 29.80 1009 10 16 0.00 0.00
11:53 pm 23:53 Clear 70 21.1 61 16.1 73 73 S 8 13 29.78 1009 10 16 0.00 0.00

Powered by AerisWeather